When you browse on this site, cookies collect data to enhance your experience and personalize the content and advertising you see.
Visit our Privacy Policy to learn more. By continuing to use the site, you agree to this use of cookies and data.
  • în România
  • Lista ţărilor
  • Pe 7 zile
  • Temperatura apei
  • Hartă satelitară
  • Meteo pe hartă
  • Widget-uri
  • user-avatar
    Intrare

    Meteo pe oră la Bismark

    Astăzi, 23 Februarie, Sâmbătă

    Timp Temperatura Precipitaţii Vânt Presiune Umiditate
    00:00 -13°C° 0 mm 1 m/s 716 mmHg 97%
    01:00 -14°C° 0 mm 1 m/s 716 mmHg 96%
    02:00 -14°C° 0 mm 1 m/s 715 mmHg 96%
    03:00 -15°C° 0 mm 1 m/s 715 mmHg 95%
    04:00 -15°C° 0 mm 1 m/s 715 mmHg 95%
    05:00 -16°C° 0 mm 1 m/s 714 mmHg 93%
    06:00 -15°C° 0 mm 1 m/s 714 mmHg 92%
    07:00 -15°C° 0 mm 1 m/s 714 mmHg 90%
    08:00 -14°C° 0 mm 1 m/s 714 mmHg 89%
    09:00 -12°C° 0 mm 1 m/s 714 mmHg 87%
    10:00 -12°C° 0 mm 2 m/s 714 mmHg 85%
    11:00 -9°C° 0 mm 2 m/s 715 mmHg 83%
    12:00 -9°C° 0 mm 3 m/s 714 mmHg 84%
    13:00 -8°C° 0 mm 3 m/s 714 mmHg 84%
    14:00 -8°C° 0 mm 4 m/s 714 mmHg 84%
    15:00 -8°C° 0 mm 4 m/s 714 mmHg 85%
    16:00 -9°C° 0 mm 4 m/s 714 mmHg 87%
    17:00 -9°C° 0 mm 3 m/s 715 mmHg 88%
    18:00 -12°C° 0 mm 5 m/s 715 mmHg 87%
    19:00 -15°C° 0 mm 7 m/s 716 mmHg 86%
    20:00 -17°C° 0 mm 8 m/s 716 mmHg 85%
    21:00 -18°C° 0 mm 8 m/s 717 mmHg 86%
    22:00 -19°C° 0 mm 7 m/s 717 mmHg 86%
    23:00 -20°C° 0 mm 7 m/s 717 mmHg 86%

    Mâine, 24 Februarie, Duminică

    Timp Temperatura Precipitaţii Vânt Presiune Umiditate
    00:00 -21°C° 0 mm 7 m/s 718 mmHg 86%
    01:00 -22°C° 0 mm 8 m/s 719 mmHg 86%
    02:00 -22°C° 0 mm 8 m/s 719 mmHg 86%
    03:00 -23°C° 0 mm 8 m/s 720 mmHg 86%
    04:00 -24°C° 0 mm 8 m/s 720 mmHg 86%
    05:00 -25°C° 0 mm 7 m/s 721 mmHg 87%
    06:00 -26°C° 0 mm 7 m/s 722 mmHg 87%
    07:00 -27°C° 0 mm 7 m/s 722 mmHg 87%
    08:00 -27°C° 0 mm 7 m/s 723 mmHg 87%
    09:00 -27°C° 0 mm 7 m/s 724 mmHg 86%
    10:00 -27°C° 0 mm 7 m/s 724 mmHg 86%
    11:00 -26°C° 0 mm 7 m/s 725 mmHg 85%
    12:00 -26°C° 0 mm 7 m/s 725 mmHg 84%
    13:00 -26°C° 0 mm 6 m/s 725 mmHg 84%
    14:00 -24°C° 0 mm 6 m/s 725 mmHg 83%
    15:00 -25°C° 0 mm 5 m/s 725 mmHg 85%
    16:00 -25°C° 0 mm 4 m/s 725 mmHg 87%
    17:00 -25°C° 0 mm 3 m/s 725 mmHg 89%
    18:00 -26°C° 0 mm 3 m/s 725 mmHg 90%
    19:00 -27°C° 0 mm 3 m/s 725 mmHg 91%
    20:00 -30°C° 0 mm 3 m/s 725 mmHg 92%
    21:00 -28°C° 0 mm 2 m/s 726 mmHg 92%
    22:00 -29°C° 0 mm 2 m/s 726 mmHg 92%
    23:00 -29°C° 0 mm 2 m/s 726 mmHg 92%

    Poimâine, 25 Februarie, Luni

    Timp Temperatura Precipitaţii Vânt Presiune Umiditate
    00:00 -29°C° 0 mm 2 m/s 726 mmHg 92%
    01:00 -29°C° 0 mm 2 m/s 726 mmHg 92%
    02:00 -29°C° 0 mm 2 m/s 726 mmHg 91%
    03:00 -29°C° 0 mm 2 m/s 726 mmHg 91%
    04:00 -29°C° 0 mm 2 m/s 727 mmHg 91%
    05:00 -29°C° 0 mm 2 m/s 727 mmHg 91%
    06:00 -29°C° 0 mm 2 m/s 727 mmHg 90%
    07:00 -28°C° 0 mm 2 m/s 728 mmHg 89%
    08:00 -28°C° 0 mm 2 m/s 728 mmHg 88%
    09:00 -27°C° 0 mm 2 m/s 728 mmHg 85%
    10:00 -23°C° 0 mm 1 m/s 728 mmHg 82%
    11:00 -22°C° 0 mm 1 m/s 728 mmHg 80%
    12:00 -21°C° 0 mm 1 m/s 728 mmHg 78%
    13:00 -21°C° 0 mm 1 m/s 728 mmHg 77%
    14:00 -20°C° 0 mm 1 m/s 727 mmHg 75%
    15:00 -21°C° 0 mm 1 m/s 727 mmHg 79%
    16:00 -21°C° 0 mm 1 m/s 727 mmHg 82%
    17:00 -22°C° 0 mm 1 m/s 727 mmHg 85%
    18:00 -22°C° 0 mm 1 m/s 727 mmHg 86%
    19:00 -22°C° 0 mm 1 m/s 727 mmHg 87%
    20:00 -22°C° 0 mm 1 m/s 727 mmHg 88%
    21:00 -25°C° 0 mm 2 m/s 727 mmHg 89%
    22:00 -25°C° 0 mm 2 m/s 727 mmHg 90%
    23:00 -24°C° 0 mm 2 m/s 726 mmHg 90%

    26 Februarie, Marţi

    Timp Temperatura Precipitaţii Vânt Presiune Umiditate
    00:00 -25°C° 0.3 mm 3 m/s 726 mmHg 92%
    01:00 -25°C° 0.3 mm 3 m/s 725 mmHg 94%
    02:00 -25°C° 0.3 mm 3 m/s 725 mmHg 96%
    03:00 -26°C° 0.5 mm 4 m/s 724 mmHg 96%
    04:00 -25°C° 0.5 mm 4 m/s 723 mmHg 96%
    05:00 -26°C° 0.5 mm 5 m/s 723 mmHg 96%
    06:00 -26°C° 0.7 mm 5 m/s 722 mmHg 96%
    07:00 -25°C° 0.7 mm 5 m/s 722 mmHg 96%
    08:00 -25°C° 0.7 mm 5 m/s 722 mmHg 95%
    09:00 -24°C° 0.2 mm 5 m/s 721 mmHg 94%
    10:00 -22°C° 0.2 mm 5 m/s 721 mmHg 93%
    11:00 -22°C° 0.2 mm 5 m/s 721 mmHg 91%
    12:00 -20°C° 0.2 mm 4 m/s 720 mmHg 91%
    13:00 -19°C° 0.2 mm 3 m/s 720 mmHg 90%
    14:00 -17°C° 0.2 mm 2 m/s 720 mmHg 89%
    15:00 -15°C° 0.1 mm 1 m/s 720 mmHg 90%
    16:00 -15°C° 0.1 mm 1 m/s 720 mmHg 91%
    17:00 -15°C° 0.1 mm 0 m/s 720 mmHg 92%
    18:00 -16°C° 0 mm 1 m/s 721 mmHg 93%
    19:00 -20°C° 0 mm 2 m/s 721 mmHg 94%
    20:00 -23°C° 0 mm 3 m/s 722 mmHg 95%
    21:00 -24°C° 0 mm 3 m/s 723 mmHg 94%
    22:00 -26°C° 0 mm 4 m/s 723 mmHg 93%
    23:00 -26°C° 0 mm 4 m/s 724 mmHg 92%

    27 Februarie, Miercuri

    Timp Temperatura Precipitaţii Vânt Presiune Umiditate
    00:00 -27°C° 0 mm 4 m/s 724 mmHg 92%
    01:00 -29°C° 0 mm 4 m/s 724 mmHg 92%
    02:00 -29°C° 0 mm 5 m/s 725 mmHg 92%
    03:00 -29°C° 0 mm 4 m/s 725 mmHg 92%
    04:00 -30°C° 0 mm 4 m/s 725 mmHg 92%
    05:00 -30°C° 0 mm 4 m/s 725 mmHg 91%
    06:00 -29°C° 0 mm 4 m/s 725 mmHg 90%
    07:00 -29°C° 0 mm 5 m/s 725 mmHg 89%
    08:00 -28°C° 0 mm 5 m/s 725 mmHg 88%
    09:00 -26°C° 0 mm 5 m/s 725 mmHg 86%
    10:00 -25°C° 0 mm 5 m/s 725 mmHg 84%
    11:00 -22°C° 0 mm 5 m/s 725 mmHg 81%
    12:00 -21°C° 0 mm 5 m/s 724 mmHg 81%
    13:00 -20°C° 0 mm 5 m/s 724 mmHg 81%
    14:00 -17°C° 0 mm 4 m/s 723 mmHg 80%
    15:00 -18°C° 0 mm 4 m/s 723 mmHg 82%
    16:00 -18°C° 0 mm 3 m/s 722 mmHg 84%
    17:00 -19°C° 0 mm 3 m/s 722 mmHg 86%
    18:00 -21°C° 0 mm 3 m/s 721 mmHg 87%
    19:00 -22°C° 0 mm 3 m/s 721 mmHg 87%
    20:00 -23°C° 0 mm 3 m/s 721 mmHg 87%
    21:00 -23°C° 0 mm 3 m/s 721 mmHg 86%
    22:00 -24°C° 0 mm 3 m/s 720 mmHg 84%
    23:00 -24°C° 0 mm 3 m/s 720 mmHg 83%

    28 Februarie, Joi

    Timp Temperatura Precipitaţii Vânt Presiune Umiditate
    00:00 -24°C° 0 mm 3 m/s 720 mmHg 82%
    01:00 -24°C° 0 mm 3 m/s 719 mmHg 81%
    02:00 -24°C° 0 mm 3 m/s 719 mmHg 80%
    03:00 -24°C° 0 mm 3 m/s 719 mmHg 80%
    04:00 -24°C° 0 mm 3 m/s 718 mmHg 79%
    05:00 -24°C° 0 mm 3 m/s 718 mmHg 79%
    06:00 -23°C° 0 mm 3 m/s 718 mmHg 79%
    07:00 -22°C° 0 mm 3 m/s 718 mmHg 79%
    08:00 -21°C° 0 mm 3 m/s 718 mmHg 80%
    09:00 -18°C° 0 mm 3 m/s 717 mmHg 79%
    10:00 -16°C° 0 mm 3 m/s 717 mmHg 79%
    11:00 -14°C° 0 mm 3 m/s 717 mmHg 78%
    12:00 -13°C° 0 mm 3 m/s 716 mmHg 79%
    13:00 -12°C° 0 mm 3 m/s 715 mmHg 79%
    14:00 -10°C° 0 mm 3 m/s 715 mmHg 79%
    15:00 -10°C° 0 mm 3 m/s 714 mmHg 81%
    16:00 -10°C° 0 mm 2 m/s 714 mmHg 84%
    17:00 -12°C° 0 mm 2 m/s 714 mmHg 86%
    18:00 -13°C° 0 mm 2 m/s 714 mmHg 86%
    19:00 -14°C° 0 mm 2 m/s 714 mmHg 87%
    20:00 -15°C° 0 mm 2 m/s 714 mmHg 87%
    21:00 -15°C° 0 mm 2 m/s 714 mmHg 88%
    22:00 -15°C° 0 mm 2 m/s 713 mmHg 89%
    23:00 -16°C° 0 mm 3 m/s 713 mmHg 90%
    Arată mai mult